Radioactive Concentration measured by Seawater Radiation Monitor near Fukushima Daiichi Nuclear Power Station
Date,Time,Cs137(Bq/L),Cs134(Bq/L),Total β(Bq/L)
2017/09/20,00:00,1.1,0.049,ND
2017/09/20,00:10,1.2,0.050,ND
2017/09/20,00:20,1.2,0.048,ND
2017/09/20,00:30,1.2,0.048,ND
2017/09/20,00:40,1.1,0.069,ND
2017/09/20,00:50,1.2,0.047,ND
2017/09/20,01:00,1.2,0.052,ND
2017/09/20,01:10,1.2,0.054,ND
2017/09/20,01:20,1.2,0.063,ND
2017/09/20,01:30,1.1,0.065,ND
2017/09/20,01:40,1.1,0.062,ND
2017/09/20,01:50,0.96,0.089,ND
2017/09/20,02:00,0.95,0.082,ND
2017/09/20,02:10,0.95,0.080,ND
2017/09/20,02:20,0.96,0.067,ND
2017/09/20,02:30,0.98,0.058,ND
2017/09/20,02:40,0.95,0.062,ND
2017/09/20,02:50,0.96,0.053,ND
2017/09/20,03:00,0.95,0.064,ND
2017/09/20,03:10,0.97,0.071,ND
2017/09/20,03:20,0.99,0.083,ND
2017/09/20,03:30,1.0,0.091,9.9
2017/09/20,03:40,1.1,0.087,11
2017/09/20,03:50,1.1,0.085,ND
2017/09/20,04:00,1.1,0.071,ND
2017/09/20,04:10,1.2,0.066,ND
2017/09/20,04:20,1.4,0.034,ND
2017/09/20,04:30,1.2,0.069,ND
2017/09/20,04:40,1.3,0.044,ND
2017/09/20,04:50,1.3,0.064,ND
2017/09/20,05:00,1.1,0.089,ND
2017/09/20,05:10,1.2,0.065,ND
2017/09/20,05:20,1.1,0.090,ND
2017/09/20,05:30,1.2,0.052,ND
2017/09/20,05:40,1.2,0.049,ND
2017/09/20,05:50,1.1,0.071,ND
2017/09/20,06:00,1.1,0.067,ND
2017/09/20,06:10,1.1,0.062,ND
2017/09/20,06:20,1.2,0.063,ND
2017/09/20,06:30,1.2,0.080,ND
2017/09/20,06:40,1.2,0.082,ND
2017/09/20,06:50,1.1,0.093,ND
2017/09/20,07:00,1.1,0.095,ND
2017/09/20,07:10,1.1,0.097,ND
2017/09/20,07:20,1.1,0.11,ND
2017/09/20,07:30,1.2,0.11,ND
2017/09/20,07:40,1.2,0.12,ND
2017/09/20,07:50,1.4,0.071,ND
2017/09/20,08:00,1.4,0.079,ND
2017/09/20,08:10,1.3,0.12,ND
2017/09/20,08:20,1.4,0.12,ND
2017/09/20,08:30,1.4,0.12,ND
2017/09/20,08:40,1.4,0.12,ND
2017/09/20,08:50,1.4,0.097,ND
2017/09/20,09:00,1.4,0.11,ND
2017/09/20,09:10,1.4,0.090,ND
2017/09/20,09:20,1.3,0.087,ND
2017/09/20,09:30,1.2,0.079,ND
2017/09/20,09:40,1.1,0.080,ND
2017/09/20,09:50,1.0,0.089,ND
2017/09/20,10:00,0.99,0.085,ND
2017/09/20,10:10,0.96,0.089,ND
2017/09/20,10:20,1.1,0.060,ND
2017/09/20,10:30,1.0,0.049,ND
2017/09/20,10:40,1.0,0.034,ND
2017/09/20,10:50,0.99,0.032,ND
2017/09/20,11:00,0.99,0.026,ND
2017/09/20,11:10,0.97,0.027,ND
2017/09/20,11:20,1.0,ND,ND
2017/09/20,11:30,1.0,ND,ND
2017/09/20,11:40,0.98,0.027,ND
2017/09/20,11:50,1.0,ND,ND
2017/09/20,12:00,0.99,ND,ND
2017/09/20,12:10,0.82,0.049,ND
2017/09/20,12:20,0.81,0.053,10
2017/09/20,12:30,0.81,0.049,ND
2017/09/20,12:40,0.82,0.054,ND
2017/09/20,12:50,0.81,0.061,ND
2017/09/20,13:00,0.86,0.056,ND
2017/09/20,13:10,0.85,0.060,ND
2017/09/20,13:20,0.86,0.064,ND
2017/09/20,13:30,0.85,0.072,ND
2017/09/20,13:40,0.86,0.066,ND
2017/09/20,13:50,0.82,0.069,ND
2017/09/20,14:00,0.83,0.064,9.3
2017/09/20,14:10,0.83,0.058,9.3
2017/09/20,14:20,0.83,0.050,11
2017/09/20,14:30,0.83,0.047,10
2017/09/20,14:40,0.84,0.046,ND
2017/09/20,14:50,0.88,0.038,ND
2017/09/20,15:00,0.86,0.045,ND
2017/09/20,15:10,0.88,0.045,ND
2017/09/20,15:20,0.88,0.055,ND
2017/09/20,15:30,0.86,0.066,ND
2017/09/20,15:40,0.85,0.072,ND
2017/09/20,15:50,0.85,0.079,ND
2017/09/20,16:00,0.82,0.087,ND
2017/09/20,16:10,0.94,0.059,ND
2017/09/20,16:20,0.94,0.050,ND
2017/09/20,16:30,0.81,0.068,ND
2017/09/20,16:40,0.84,0.063,ND
2017/09/20,16:50,0.84,0.065,ND
2017/09/20,17:00,0.88,0.066,ND
2017/09/20,17:10,0.93,0.068,ND
2017/09/20,17:20,0.97,0.069,ND
2017/09/20,17:30,1.1,0.074,ND
2017/09/20,17:40,1.1,0.057,ND
2017/09/20,17:50,0.99,0.093,ND
2017/09/20,18:00,1.1,0.095,ND
2017/09/20,18:10,0.98,0.10,ND
2017/09/20,18:20,0.98,0.099,ND
2017/09/20,18:30,1.0,0.10,ND
2017/09/20,18:40,1.1,0.10,ND
2017/09/20,18:50,1.1,0.087,ND
2017/09/20,19:00,1.1,0.081,ND
2017/09/20,19:10,1.1,0.074,ND
2017/09/20,19:20,1.1,0.066,ND
2017/09/20,19:30,1.0,0.068,ND
2017/09/20,19:40,1.0,0.068,ND
2017/09/20,19:50,0.99,0.069,ND
2017/09/20,20:00,0.98,0.074,ND
2017/09/20,20:10,1.0,0.074,ND
2017/09/20,20:20,0.98,0.092,ND
2017/09/20,20:30,0.98,0.082,10
2017/09/20,20:40,1.0,0.083,10
2017/09/20,20:50,1.1,0.082,12
2017/09/20,21:00,1.0,0.083,14
2017/09/20,21:10,1.0,0.081,12
2017/09/20,21:20,1.0,0.083,10
2017/09/20,21:30,1.0,0.093,9.2
2017/09/20,21:40,1.0,0.089,10
2017/09/20,21:50,1.0,0.090,9.6
2017/09/20,22:00,1.0,0.089,ND
2017/09/20,22:10,1.0,0.099,ND
2017/09/20,22:20,1.1,0.096,ND
2017/09/20,22:30,1.1,0.10,ND
2017/09/20,22:40,1.2,0.11,ND
2017/09/20,22:50,1.2,0.12,ND
2017/09/20,23:00,1.3,0.12,ND
2017/09/20,23:10,1.3,0.11,ND
2017/09/20,23:20,1.4,0.12,ND
2017/09/20,23:30,1.4,0.12,ND
2017/09/20,23:40,1.4,0.12,11
2017/09/20,23:50,1.4,0.12,ND
